Thermal, CA

3:39 PM PST on February 25, 2017 (GMT -0800)
Desert Resorts Regional

Weather History for KTRM - January, 2014

Change the Weather History Date:

Tuesday, January 7, 2014

  Actual Average Record
Temperature  
Mean Temperature 50 °F 54 °F  
Max Temperature 69 °F 71 °F 92 °F (1962)
Min Temperature 30 °F 37 °F 22 °F (1973)
Degree Days  
Heating Degree Days 15 11  
Month to date heating degree days 76 79  
Since 1 July heating degree days 551 617  
Cooling Degree Days 0 0  
Month to date cooling degree days 0 0  
Year to date cooling degree days 0 0  
Moisture  
Dew Point 21 °F    
Average Humidity 34    
Maximum Humidity 58    
Minimum Humidity 10    
Precipitation  
Precipitation 0.00 in 0.02 in 1.45 in (1974)
Month to date precipitation 0.00 0.16  
Year to date precipitation 0.00 0.16  
Since 1 July precipitation 1.47  
Snow  
Snow 0.00 in - - ()
Month to date snowfall 0.0  
Year to date snowfall 0.0  
Snow Depth 0.00 in    
Sea Level Pressure  
Sea Level Pressure 30.08 in    
Wind  
Wind Speed 2 mph (NNW)    
Max Wind Speed 8 mph    
Max Gust Speed 9 mph    
Visibility 10 miles    
Events      
T = Trace of Precipitation, MM = Missing Value Source: NWS Daily Summary

Daily Weather History Graph

Daily Weather History Graph

Search for Another Location

Airport or City:

Trip Planner

Search our weather history database for the weather conditions in past years. The results will help you decide how hot, cold, wet, or windy it might be!

Date:

Astronomy

Jan. 07, 2014 Rise Set
Actual Time 6:49 AM PST 4:52 PM PST
Civil Twilight 6:22 AM PST 5:19 PM PST
Nautical Twilight 5:51 AM PST 5:50 PM PST
Astronomical Twilight 5:21 AM PST 6:20 PM PST
Moon 11:02 AM PST (1/7) No Moon Set
Length of Visible Light 10h 57m
Length of Day
10h 02m
Waxing Crescent, 46% of the Moon is Illuminated
Jan 7
Waxing Crescent
Jan 7
First Quarter
Jan 15
Full
Jan 23
Last Quarter
Jan 30
New

Hourly Weather History & Observations

Time (PST) Temp. Windchill Dew Point Humidity Pressure Visibility Wind Dir Wind Speed Gust Speed Precip Events Conditions
12:52 AM 37.0 °F 32.4 °F 19.0 °F 48% 30.14 in 10.0 mi North 5.8 mph - N/A   Clear
1:52 AM 35.1 °F 30.1 °F 16.0 °F 46% 30.14 in 10.0 mi NNW 5.8 mph - N/A   Clear
2:52 AM 39.9 °F 35.8 °F 17.1 °F 40% 30.15 in 10.0 mi North 5.8 mph - N/A   Clear
3:52 AM 30.9 °F - 17.1 °F 57% 30.12 in 10.0 mi Calm Calm - N/A   Clear
4:52 AM 37.9 °F 34.4 °F 16.0 °F 41% 30.12 in 10.0 mi North 4.6 mph - N/A   Clear
5:52 AM 35.1 °F 32.2 °F 17.1 °F 48% 30.13 in 10.0 mi NNW 3.5 mph - N/A   Clear
6:52 AM 39.9 °F - 16.0 °F 38% 30.12 in 10.0 mi Calm Calm - N/A   Clear
7:52 AM 45.0 °F 43.5 °F 21.0 °F 39% 30.14 in 10.0 mi NNW 3.5 mph - N/A   Clear
8:52 AM 53.1 °F - 19.0 °F 26% 30.14 in 10.0 mi Calm Calm - N/A   Clear
9:52 AM 61.0 °F - 17.1 °F 18% 30.14 in 10.0 mi NNW 3.5 mph - N/A   Clear
10:52 AM 64.9 °F - 19.0 °F 17% 30.13 in 10.0 mi Calm Calm - N/A   Clear
11:52 AM 68.0 °F - 10.0 °F 11% 30.09 in 10.0 mi Calm Calm - N/A   Clear
12:52 PM 68.0 °F - 10.0 °F 11% 30.05 in 10.0 mi West 5.8 mph - N/A   Clear
1:52 PM 68.0 °F - 12.0 °F 11% 30.03 in 10.0 mi Calm Calm - N/A   Clear
2:52 PM 68.0 °F - 15.1 °F 13% 30.03 in 10.0 mi Calm Calm - N/A   Clear
3:52 PM 64.9 °F - 25.0 °F 22% 30.03 in 10.0 mi Calm Calm - N/A   Clear
4:52 PM 60.1 °F - 28.9 °F 31% 30.03 in 10.0 mi Calm Calm - N/A   Clear
5:52 PM 53.1 °F - 32.0 °F 45% 30.04 in 10.0 mi Calm Calm - N/A   Clear
6:52 PM 52.0 °F - 30.0 °F 43% 30.03 in 10.0 mi Calm Calm - N/A   Clear
7:52 PM 51.1 °F - 32.0 °F 48% 30.04 in 10.0 mi Calm Calm - N/A   Clear
8:52 PM 53.1 °F - 32.0 °F 45% 30.04 in 10.0 mi North 4.6 mph - N/A   Clear
9:52 PM 48.9 °F - 32.0 °F 52% 30.06 in 10.0 mi Calm Calm - N/A   Clear
10:52 PM 46.0 °F - 32.0 °F 58% 30.05 in 10.0 mi Calm Calm - N/A   Clear
11:52 PM 41.0 °F 39.0 °F 28.9 °F 62% 30.04 in 10.0 mi North 3.5 mph - N/A   Clear